Stoneville, NC

1:11 AM EST on January 17, 2017 (GMT -0500)
Reidsville

Weather History for KSIF - February, 2013

Change the Weather History Date:

Monday, February 25, 2013

  Actual Average (KGSO) Record (KGSO)
Temperature  
Mean Temperature 34 °F -  
Max Temperature 41 °F 53 °F 81 °F (1930)
Min Temperature 27 °F 31 °F 6 °F (1967)
Degree Days  
Heating Degree Days 31    
Moisture  
Dew Point 23 °F    
Average Humidity 64    
Maximum Humidity 84    
Minimum Humidity 46    
Precipitation  
Precipitation 0.00 in - - ()
Sea Level Pressure  
Sea Level Pressure 30.15 in    
Wind  
Wind Speed 1 mph (NE)    
Max Wind Speed 6 mph    
Max Gust Speed -    
Visibility 10 miles    
Events      
Averages and records for this station are not official NWS values.
T = Trace of Precipitation, MM = Missing Value Source: NWS Daily Summary

Daily Weather History Graph

Daily Weather History Graph

Search for Another Location

Airport or City:

Trip Planner

Search our weather history database for the weather conditions in past years. The results will help you decide how hot, cold, wet, or windy it might be!

Date:

Astronomy

Feb. 25, 2013 Rise Set
Actual Time 6:54 AM EST 6:10 PM EST
Civil Twilight 6:28 AM EST 6:36 PM EST
Nautical Twilight 5:58 AM EST 7:06 PM EST
Astronomical Twilight 5:29 AM EST 7:36 PM EST
Moon 6:20 PM EST (2/25) 6:25 AM EST (2/25)
Length of Visible Light 12h 07m
Length of Day
11h 15m
Full, 100% of the Moon is Illuminated
Feb 25
Full
Feb 25
Full
Mar 4
Last Quarter
Mar 11
New
Mar 19
First Quarter

Hourly Weather History & Observations

Time (EST) Temp. Windchill Dew Point Humidity Pressure Visibility Wind Dir Wind Speed Gust Speed Precip Events Conditions
12:15 AM 40.1 °F - 23.2 °F 51% 30.06 in 10.0 mi Calm Calm - N/A   Clear
12:35 AM 39.7 °F - 22.6 °F 50% 30.06 in 10.0 mi Calm Calm - N/A   Clear
12:55 AM 35.2 °F - 23.7 °F 63% 30.07 in 10.0 mi Calm Calm - N/A   Clear
1:15 AM 35.6 °F - 23.4 °F 61% 30.07 in 10.0 mi Calm Calm - N/A   Clear
1:35 AM 36.3 °F 33.7 °F 23.0 °F 59% 30.07 in 10.0 mi NNE 3.5 mph - N/A   Clear
1:55 AM 32.4 °F - 23.5 °F 70% 30.08 in 10.0 mi Calm Calm - N/A   Clear
2:15 AM 32.0 °F - 23.9 °F 72% 30.09 in 10.0 mi Calm Calm - N/A   Clear
2:35 AM 32.2 °F - 23.2 °F 69% 30.10 in 10.0 mi Calm Calm - N/A   Clear
2:55 AM 27.7 °F - 23.0 °F 83% 30.09 in 10.0 mi Calm Calm - N/A   Clear
3:15 AM 35.1 °F 32.2 °F 23.7 °F 63% 30.08 in 10.0 mi NE 3.5 mph - N/A   Clear
3:35 AM 34.2 °F - 23.9 °F 66% 30.10 in 10.0 mi Calm Calm - N/A   Clear
3:55 AM 33.8 °F - 24.3 °F 68% 30.10 in 10.0 mi Calm Calm - N/A   Clear
4:15 AM 33.8 °F - 24.4 °F 69% 30.11 in 10.0 mi Calm Calm - N/A   Clear
4:35 AM 33.3 °F - 24.6 °F 71% 30.12 in 10.0 mi Calm Calm - N/A   Clear
4:55 AM 32.9 °F 29.8 °F 24.6 °F 72% 30.11 in 10.0 mi NE 3.5 mph - N/A   Clear
5:15 AM 33.1 °F - 24.6 °F 71% 30.13 in 10.0 mi Calm Calm - N/A   Clear
5:35 AM 32.0 °F - 24.4 °F 74% 30.15 in 10.0 mi Calm Calm - N/A   Clear
5:55 AM 31.8 °F - 24.6 °F 75% 30.14 in 10.0 mi Calm Calm - N/A   Clear
6:15 AM 32.2 °F - 24.4 °F 73% 30.15 in 10.0 mi Calm Calm - N/A   Clear
6:35 AM 32.0 °F - 24.1 °F 73% 30.15 in 10.0 mi Calm Calm - N/A   Clear
6:55 AM 31.6 °F - 23.9 °F 73% 30.16 in 10.0 mi Calm Calm - N/A   Clear
7:15 AM 31.6 °F - 23.9 °F 73% 30.16 in 10.0 mi Calm Calm - N/A   Clear
7:35 AM 31.6 °F - 23.9 °F 73% 30.17 in 10.0 mi Calm Calm - N/A   Clear
7:55 AM 32.0 °F - 24.1 °F 73% 30.18 in 10.0 mi Calm Calm - N/A   Clear
8:15 AM 32.2 °F - 23.9 °F 72% 30.19 in 10.0 mi Calm Calm - N/A   Clear
8:35 AM 32.7 °F - 24.1 °F 71% 30.19 in 10.0 mi Calm Calm - N/A   Clear
8:55 AM 33.1 °F 30.0 °F 23.7 °F 68% 30.21 in 10.0 mi NNE 3.5 mph - N/A   Clear
9:15 AM 34.0 °F 31.0 °F 23.7 °F 66% 30.21 in 10.0 mi ENE 3.5 mph - N/A   Clear
9:35 AM 34.7 °F - 22.8 °F 62% 30.22 in 10.0 mi Calm Calm - N/A   Clear
9:55 AM 35.6 °F 32.8 °F 22.6 °F 59% 30.22 in 10.0 mi SE 3.5 mph - N/A   Clear
10:15 AM 36.0 °F 33.3 °F 21.6 °F 56% 30.22 in 10.0 mi NE 3.5 mph - N/A   Clear
10:35 AM 36.7 °F 32.9 °F 21.7 °F 55% 30.22 in 10.0 mi ENE 4.6 mph - N/A   Clear
10:55 AM 37.0 °F 34.5 °F 21.0 °F 52% 30.21 in 10.0 mi East 3.5 mph - N/A   Clear
11:15 AM 37.4 °F 34.9 °F 20.1 °F 50% 30.21 in 10.0 mi East 3.5 mph - N/A   Clear
11:35 AM 38.3 °F - 21.0 °F 50% 30.21 in 10.0 mi Calm Calm - N/A   Clear
11:55 AM 38.3 °F 34.8 °F 20.3 °F 48% 30.20 in 10.0 mi NE 4.6 mph - N/A   Clear
12:15 PM 38.3 °F 34.8 °F 20.3 °F 48% 30.20 in 10.0 mi NE 4.6 mph - N/A   Clear
12:35 PM 39.4 °F 35.2 °F 21.2 °F 48% 30.18 in 10.0 mi NE 5.8 mph - N/A   Clear
1:15 PM 39.9 °F 37.8 °F 21.6 °F 48% 30.17 in 10.0 mi NE 3.5 mph - N/A   Clear
1:35 PM 40.1 °F - 21.6 °F 48% 30.16 in 10.0 mi Calm Calm - N/A   Clear
1:55 PM 39.9 °F - 21.6 °F 48% 30.15 in 10.0 mi Calm Calm - N/A   Clear
2:15 PM 41.0 °F - 21.9 °F 47% 30.15 in 10.0 mi Calm Calm - N/A   Clear
2:35 PM 41.0 °F 39.0 °F 21.7 °F 46% 30.16 in 10.0 mi ENE 3.5 mph - N/A   Clear
2:55 PM 41.0 °F - 22.1 °F 47% 30.15 in 10.0 mi Calm Calm - N/A   Clear
3:15 PM 41.2 °F - 22.3 °F 47% 30.15 in 10.0 mi Calm Calm - N/A   Clear
3:35 PM 41.0 °F - 21.9 °F 47% 30.14 in 10.0 mi Calm Calm - N/A   Clear
3:55 PM 41.2 °F - 22.3 °F 47% 30.15 in 10.0 mi Calm Calm - N/A   Clear
4:15 PM 41.2 °F 39.2 °F 22.3 °F 47% 30.14 in 10.0 mi NE 3.5 mph - N/A   Clear
4:35 PM 41.5 °F 39.6 °F 22.5 °F 47% 30.14 in 10.0 mi ENE 3.5 mph - N/A   Clear
4:55 PM 41.0 °F - 22.1 °F 47% 30.14 in 10.0 mi Calm Calm - N/A   Clear
5:15 PM 41.0 °F 38.0 °F 22.1 °F 47% 30.14 in 10.0 mi NE 4.6 mph - N/A   Clear
5:35 PM 41.0 °F 39.0 °F 22.1 °F 47% 30.13 in 10.0 mi ENE 3.5 mph - N/A   Clear
5:55 PM 40.3 °F - 22.1 °F 48% 30.14 in 10.0 mi Calm Calm - N/A   Clear
6:15 PM 38.7 °F - 22.6 °F 53% 30.15 in 10.0 mi Calm Calm - N/A   Clear
6:35 PM 36.1 °F - 23.0 °F 59% 30.15 in 10.0 mi Calm Calm - N/A   Clear
6:55 PM 33.8 °F - 23.5 °F 66% 30.15 in 10.0 mi Calm Calm - N/A   Clear
7:15 PM 31.3 °F - 23.5 °F 73% 30.15 in 10.0 mi Calm Calm - N/A   Clear
7:35 PM 30.4 °F - 23.7 °F 76% 30.16 in 10.0 mi Calm Calm - N/A   Clear
7:55 PM 29.7 °F - 23.9 °F 79% 30.16 in 10.0 mi Calm Calm - N/A   Clear
8:15 PM 28.8 °F - 23.0 °F 79% 30.16 in 10.0 mi Calm Calm - N/A   Clear
8:35 PM 29.8 °F - 24.8 °F 81% 30.16 in 10.0 mi Calm Calm - N/A   Clear
8:55 PM 28.6 °F - 23.9 °F 83% 30.16 in 10.0 mi Calm Calm - N/A   Clear
9:15 PM 28.8 °F - 24.4 °F 84% 30.16 in 10.0 mi Calm Calm - N/A   Clear
9:35 PM 28.4 °F - 24.1 °F 84% 30.16 in 10.0 mi Calm Calm - N/A   Clear
9:55 PM 28.2 °F - 23.9 °F 84% 30.16 in 10.0 mi Calm Calm - N/A   Clear
10:15 PM 28.2 °F - 23.9 °F 84% 30.16 in 10.0 mi Calm Calm - N/A   Scattered Clouds
10:55 PM 31.5 °F - 24.3 °F 75% 30.16 in 10.0 mi Calm Calm - N/A   Scattered Clouds
11:15 PM 29.1 °F - 24.3 °F 82% 30.16 in 10.0 mi Calm Calm - N/A   Clear
11:35 PM 30.9 °F - 25.2 °F 79% 30.15 in 10.0 mi Calm Calm - N/A   Clear
11:55 PM 31.8 °F - 23.9 °F 73% 30.15 in 10.0 mi Calm Calm - N/A   Clear